Caldwell, ID

8:47 PM MDT on August 16, 2017 (GMT -0600)
Caldwell Industrial

Weather History for KEUL - October, 2012

Change the Weather History Date:

Friday, October 19, 2012

  Actual Average (KBOI) Record (KBOI)
Temperature  
Mean Temperature 47 °F -  
Max Temperature 57 °F 64 °F 83 °F (1927)
Min Temperature 37 °F 37 °F 23 °F (1905)
Degree Days  
Heating Degree Days 18    
Moisture  
Dew Point 33 °F    
Average Humidity 57    
Maximum Humidity 70    
Minimum Humidity 44    
Precipitation  
Precipitation 0.00 in - - ()
Sea Level Pressure  
Sea Level Pressure 29.96 in    
Wind  
Wind Speed 2 mph (East)    
Max Wind Speed 8 mph    
Max Gust Speed -    
Visibility 10 miles    
Events      
Averages and records for this station are not official NWS values.
T = Trace of Precipitation, MM = Missing Value Source: NWS Daily Summary

Daily Weather History Graph

Daily Weather History Graph

Search for Another Location

Airport or City:

Trip Planner

Search our weather history database for the weather conditions in past years. The results will help you decide how hot, cold, wet, or windy it might be!

Date:

Astronomy

Oct. 19, 2012 Rise Set
Actual Time 8:06 AM MDT 6:55 PM MDT
Civil Twilight 7:37 AM MDT 7:24 PM MDT
Nautical Twilight 7:03 AM MDT 7:58 PM MDT
Astronomical Twilight 6:30 AM MDT 8:31 PM MDT
Moon 1:00 PM MDT (10/19) 10:32 PM MDT (10/19)
Length of Visible Light 11h 47m
Length of Day
10h 49m
Waxing Crescent, 24% of the Moon is Illuminated
Oct 19
Waxing Crescent
Oct 21
First Quarter
Oct 29
Full
Nov 6
Last Quarter
Nov 13
New

Hourly Weather History & Observations

Time (MDT) Temp. Windchill Dew Point Humidity Pressure Visibility Wind Dir Wind Speed Gust Speed Precip Events Conditions
1:35 AM 44.6 °F - 28.4 °F 53% 30.06 in 10.0 mi Calm Calm - N/A   Clear
1:55 AM 42.8 °F - 28.4 °F 57% 30.06 in 10.0 mi Calm Calm - N/A   Clear
2:15 AM 41.0 °F 37.1 °F 28.4 °F 61% 30.07 in 10.0 mi East 5.8 mph - N/A   Clear
2:35 AM 42.8 °F 41.1 °F 26.6 °F 53% 30.07 in 10.0 mi ESE 3.5 mph - N/A   Clear
2:55 AM 42.8 °F 38.0 °F 28.4 °F 57% 30.06 in 10.0 mi ESE 8.1 mph - N/A   Clear
3:16 AM 42.8 °F 40.1 °F 28.4 °F 57% 30.06 in 10.0 mi SSE 4.6 mph - N/A   Clear
3:35 AM 42.8 °F 40.1 °F 28.4 °F 57% 30.06 in 10.0 mi South 4.6 mph - N/A   Clear
3:55 AM 42.8 °F - 30.2 °F 61% 30.06 in 10.0 mi Calm Calm - N/A   Clear
4:15 AM 39.2 °F - 28.4 °F 65% 30.06 in 10.0 mi Calm Calm - N/A   Clear
4:35 AM 41.0 °F - 28.4 °F 61% 30.06 in 10.0 mi Calm Calm - N/A   Clear
4:55 AM 41.0 °F - 28.4 °F 61% 30.05 in 10.0 mi Calm Calm - N/A   Clear
5:15 AM 37.4 °F - 28.4 °F 70% 30.05 in 10.0 mi Calm Calm - N/A   Clear
5:35 AM 37.4 °F - 28.4 °F 70% 30.06 in 10.0 mi Calm Calm - N/A   Clear
5:55 AM 37.4 °F - 26.6 °F 65% 30.05 in 10.0 mi Calm Calm - N/A   Clear
6:15 AM 37.4 °F 34.9 °F 28.4 °F 70% 30.04 in 9.0 mi SE 3.5 mph - N/A   Clear
6:55 AM 37.4 °F 34.9 °F 28.4 °F 70% 30.05 in 10.0 mi East 3.5 mph - N/A   Clear
7:15 AM 37.4 °F 34.9 °F 28.4 °F 70% 30.04 in 10.0 mi ESE 3.5 mph - N/A   Clear
7:35 AM 37.4 °F - 28.4 °F 70% 30.04 in 10.0 mi Calm Calm - N/A   Clear
7:55 AM 39.2 °F 37.0 °F 28.4 °F 65% 30.05 in 10.0 mi NNE 3.5 mph - N/A   Clear
8:15 AM 39.2 °F - 30.2 °F 70% 30.05 in 10.0 mi Calm Calm - N/A   Clear
8:35 AM 41.0 °F - 30.2 °F 65% 30.05 in 10.0 mi Calm Calm - N/A   Clear
8:55 AM 41.0 °F - 30.2 °F 65% 30.05 in 10.0 mi Calm Calm - N/A   Clear
9:15 AM 42.8 °F - 30.2 °F 61% 30.06 in 10.0 mi Calm Calm - N/A   Scattered Clouds
9:35 AM 42.8 °F - 30.2 °F 61% 30.06 in 10.0 mi Calm Calm - N/A   Mostly Cloudy
9:55 AM 44.6 °F 43.1 °F 30.2 °F 57% 30.06 in 10.0 mi East 3.5 mph - N/A   Overcast
10:35 AM 46.4 °F 44.3 °F 32.0 °F 57% 30.06 in 10.0 mi South 4.6 mph - N/A   Mostly Cloudy
10:55 AM 48.2 °F - 30.2 °F 50% 30.05 in 10.0 mi SSE 3.5 mph - N/A   Overcast
11:15 AM 50.0 °F - 30.2 °F 47% 30.05 in 10.0 mi South 4.6 mph - N/A   Overcast
11:35 AM 51.8 °F - 30.2 °F 44% 30.05 in 10.0 mi SSE 8.1 mph - N/A   Overcast
11:55 AM 51.8 °F - 32.0 °F 47% 30.04 in 10.0 mi SE 8.1 mph - N/A   Mostly Cloudy
12:15 PM 53.6 °F - 32.0 °F 44% 30.04 in 10.0 mi SE 5.8 mph - N/A   Mostly Cloudy
12:35 PM 53.6 °F - 33.8 °F 47% 30.04 in 10.0 mi ESE 4.6 mph - N/A   Mostly Cloudy
12:55 PM 53.6 °F - 33.8 °F 47% 30.02 in 10.0 mi East 4.6 mph - N/A   Overcast
1:15 PM 53.6 °F - 33.8 °F 47% 30.01 in 10.0 mi ESE 3.5 mph - N/A   Overcast
1:35 PM 55.4 °F - 33.8 °F 44% 30.00 in 10.0 mi Calm Calm - N/A   Overcast
1:55 PM 55.4 °F - 33.8 °F 44% 29.99 in 10.0 mi NE 4.6 mph - N/A   Overcast
2:15 PM 53.6 °F - 35.6 °F 51% 29.99 in 9.0 mi Calm Calm - N/A   Overcast
2:35 PM 53.6 °F - 35.6 °F 51% 29.97 in 10.0 mi Calm Calm - N/A   Mostly Cloudy
2:55 PM 53.6 °F - 37.4 °F 54% 29.95 in 10.0 mi NNW 3.5 mph - N/A   Partly Cloudy
3:15 PM 53.6 °F - 37.4 °F 54% 29.94 in 10.0 mi Calm Calm - N/A   Mostly Cloudy
3:35 PM 55.4 °F - 37.4 °F 51% 29.93 in 10.0 mi North 3.5 mph - N/A   Overcast
3:55 PM 55.4 °F - 37.4 °F 51% 29.92 in 10.0 mi North 4.6 mph - N/A   Mostly Cloudy
4:15 PM 55.4 °F - 37.4 °F 51% 29.91 in 10.0 mi NNE 3.5 mph - N/A   Scattered Clouds
4:35 PM 55.4 °F - 37.4 °F 51% 29.90 in 10.0 mi North 3.5 mph - N/A   Overcast
5:15 PM 57.2 °F - 37.4 °F 48% 29.87 in 10.0 mi Calm Calm - N/A   Mostly Cloudy
5:35 PM 57.2 °F - 37.4 °F 48% 29.86 in 10.0 mi East 3.5 mph - N/A   Mostly Cloudy
5:55 PM 55.4 °F - 39.2 °F 54% 29.85 in 10.0 mi Calm Calm - N/A   Overcast
6:15 PM 55.4 °F - 37.4 °F 51% 29.84 in 10.0 mi Calm Calm - N/A   Overcast
6:35 PM 55.4 °F - 39.2 °F 54% 29.84 in 10.0 mi Calm Calm - N/A   Overcast
6:55 PM 55.4 °F - 37.4 °F 51% 29.83 in 10.0 mi West 3.5 mph - N/A   Overcast
7:15 PM 53.6 °F - 37.4 °F 54% 29.83 in 10.0 mi WNW 5.8 mph - N/A   Mostly Cloudy
7:35 PM 53.6 °F - 37.4 °F 54% 29.82 in 10.0 mi Calm Calm - N/A   Mostly Cloudy
7:55 PM 51.8 °F - 39.2 °F 62% 29.80 in 10.0 mi SSE 8.1 mph - N/A   Overcast
8:15 PM 53.6 °F - 39.2 °F 58% 29.81 in 10.0 mi WNW 6.9 mph - N/A   Mostly Cloudy
8:35 PM 51.8 °F - 39.2 °F 62% 29.81 in 10.0 mi North 3.5 mph - N/A   Overcast
8:55 PM 51.8 °F - 39.2 °F 62% 29.81 in 10.0 mi NNE 4.6 mph - N/A   Mostly Cloudy
9:15 PM 51.8 °F - 37.4 °F 58% 29.80 in 10.0 mi Calm Calm - N/A   Partly Cloudy
9:35 PM 50.0 °F - 39.2 °F 66% 29.80 in 10.0 mi NNE 4.6 mph - N/A   Scattered Clouds
9:55 PM 50.0 °F - 39.2 °F 66% 29.80 in 10.0 mi NW 6.9 mph - N/A   Mostly Cloudy
10:35 PM 51.8 °F - 39.2 °F 62% 29.79 in 10.0 mi NW 3.5 mph - N/A   Mostly Cloudy
10:55 PM 51.8 °F - 39.2 °F 62% 29.80 in 10.0 mi WNW 6.9 mph - N/A   Mostly Cloudy
11:15 PM 51.8 °F - 39.2 °F 62% 29.79 in 10.0 mi West 3.5 mph - N/A   Overcast
11:35 PM 50.0 °F - 39.2 °F 66% 29.79 in 10.0 mi SW 4.6 mph - N/A   Overcast
11:55 PM 48.2 °F - 37.4 °F 66% 29.80 in 10.0 mi West 4.6 mph - N/A   Mostly Cloudy